QPF
0.10 0.09 0.10 0.15 0.18 0.20 0.25 0.20 0.19 0.18 0.15 0.13 0.12 0.09 0.08 0.07 0.05 0.04 0.02 0.01 0.01 0.01 0.01 0.01 0.01 0.01 0.01 0.00 0.00 0.00 0.00 0.00 0.00 0.00 0.00 0.00 0.00 0.00 0.00 0.00 0.01 0.01 0.01
0.06 0.07 0.10 0.14 0.19 0.21 0.24 0.24 0.21 0.18 0.15 0.11 0.10 0.10 0.08 0.07 0.05 0.03 0.02 0.01 0.01 0.01 0.01 0.00 0.00 0.01 0.00 0.00 0.00 0.00 0.00 0.00 0.00 0.00 0.00 0.00 0.00 0.00 0.00 0.00 0.00 0.00 0.00
0.03 0.04 0.08 0.11 0.14 0.19 0.22 0.25 0.23 0.17 0.17 0.14 0.12 0.10 0.08 0.05 0.03 0.03 0.02 0.01 0.01 0.01 0.01 0.00 0.00 0.00 0.00 0.00 0.00 0.00 0.00 0.00 0.00 0.00 0.00 0.00 0.00 0.00 0.00 0.00 0.00 0.00 0.00
0.01 0.04 0.06 0.09 0.10 0.13 0.16 0.23 0.21 0.19 0.18 0.16 0.11 0.07 0.05 0.03 0.02 0.02 0.02 0.01 0.01 0.00 0.00 0.00 0.00 0.00 0.00 0.00 0.00 0.00 0.00 0.00 0.00 0.00 0.00 0.00 0.00 0.00 0.00 0.00 0.00 0.00 0.00
0.01 0.03 0.04 0.06 0.10 0.13 0.15 0.17 0.19 0.18 0.16 0.13 0.10 0.07 0.05 0.04 0.02 0.02 0.01 0.01 0.00 0.00 0.00 0.00 0.00 0.00 0.00 0.00 0.00 0.00 0.00 0.00 0.00 0.00 0.00 0.00 0.00 0.00 0.00 0.00 0.00 0.00 0.00
0.01 0.02 0.03 0.05 0.07 0.10 0.14 0.16 0.18 0.16 0.13 0.11 0.09 0.07 0.06 0.05 0.02 0.01 0.01 0.01 0.00 0.00 0.00 0.00 0.00 0.00 0.00 0.00 0.00 0.00 0.00 0.00 0.00 0.00 0.00 0.00 0.00 0.00 0.00 0.00 0.00 0.00 0.00
0.01 0.02 0.01 0.02 0.03 0.05 0.08 0.09 0.12 0.12 0.11 0.11 0.10 0.07 0.07 0.04 0.02 0.01 0.01 0.00 0.00 0.00 0.00 0.00 0.00 0.00 0.00 0.00 0.00 0.00 0.00 0.00 0.00 0.00 0.00 0.00 0.00 0.00 0.00 0.00 0.00 0.00 0.00
0.02 0.02 0.01 0.01 0.01 0.03 0.05 0.06 0.07 0.09 0.09 0.10 0.10 0.07 0.06 0.04 0.02 0.01 0.01 0.00 0.00 0.00 0.00 0.00 0.00 0.00 0.00 0.00 0.00 0.00 0.00 0.00 0.00 0.00 0.00 0.00 0.00 0.00 0.00 0.00 0.00 0.00 0.00
0.01 0.01 0.01 0.01 0.01 0.01 0.04 0.07 0.08 0.09 0.10 0.11 0.11 0.07 0.05 0.03 0.02 0.02 0.01 0.00 0.00 0.00 0.00 0.00 0.00 0.00 0.00 0.00 0.00 0.00 0.00 0.00 0.00 0.00 0.00 0.00 0.00 0.00 0.00 0.00 0.00 0.00 0.00
0.00 0.00 0.00 0.00 0.00 0.00 0.01 0.03 0.04 0.06 0.10 0.12 0.12 0.07 0.05 0.04 0.03 0.02 0.01 0.01 0.00 0.00 0.00 0.00 0.00 0.00 0.00 0.00 0.00 0.00 0.00 0.00 0.00 0.00 0.00 0.00 0.00 0.00 0.00 0.00 0.00 0.00 0.00
0.00 0.00 0.00 0.00 0.00 0.00 0.01 0.01 0.03 0.04 0.07 0.10 0.11 0.08 0.05 0.04 0.03 0.02 0.01 0.01 0.01 0.00 0.00 0.00 0.00 0.00 0.00 0.00 0.00 0.00 0.00 0.00 0.00 0.00 0.00 0.00 0.00 0.00 0.00 0.00 0.00 0.00 0.00
0.00 0.00 0.00 0.00 0.01 0.00 0.00 0.01 0.02 0.03 0.05 0.07 0.08 0.07 0.06 0.05 0.04 0.02 0.01 0.01 0.00 0.00 0.00 0.00 0.00 0.00 0.00 0.00 0.00 0.00 0.00 0.00 0.00 0.00 0.00 0.00 0.00 0.00 0.00 0.00 0.00 0.00 0.00
0.00 0.00 0.01 0.01 0.01 0.01 0.00 0.01 0.02 0.03 0.06 0.06 0.05 0.05 0.05 0.04 0.03 0.02 0.01 0.01 0.01 0.01 0.01 0.01 0.01 0.01 0.01 0.01 0.02 0.02 0.02 0.02 0.02 0.01 0.01 0.00 0.00 0.00 0.00 0.00 0.00 0.00 0.00
0.01 0.01 0.01 0.01 0.02 0.02 0.03 0.05 0.06 0.07 0.08 0.06 0.04 0.05 0.04 0.03 0.03 0.02 0.02 0.02 0.01 0.01 0.02 0.03 0.03 0.02 0.02 0.03 0.04 0.04 0.03 0.03 0.02 0.02 0.01 0.01 0.00 0.00 0.00 0.00 0.00 0.00 0.00
0.01 0.01 0.02 0.02 0.03 0.04 0.06 0.09 0.10 0.11 0.09 0.05 0.05 0.05 0.06 0.04 0.04 0.04 0.03 0.03 0.03 0.03 0.05 0.05 0.04 0.04 0.05 0.05 0.05 0.05 0.03 0.03 0.03 0.02 0.02 0.02 0.02 0.02 0.01 0.01 0.01 0.01 0.01
0.01 0.01 0.02 0.03 0.04 0.04 0.05 0.06 0.08 0.08 0.07 0.07 0.07 0.07 0.09 0.08 0.07 0.06 0.05 0.06 0.06 0.08 0.08 0.07 0.07 0.07 0.07 0.08 0.08 0.06 0.05 0.04 0.03 0.03 0.03 0.03 0.03 0.03 0.03 0.02 0.02 0.02 0.01
0.01 0.02 0.03 0.03 0.04 0.05 0.06 0.07 0.08 0.08 0.08 0.09 0.10 0.11 0.12 0.12 0.10 0.10 0.08 0.07 0.07 0.08 0.08 0.09 0.09 0.09 0.10 0.11 0.09 0.08 0.07 0.07 0.06 0.06 0.05 0.05 0.05 0.04 0.04 0.03 0.03 0.03 0.02
0.03 0.04 0.05 0.05 0.05 0.05 0.05 0.08 0.10 0.11 0.12 0.13 0.14 0.13 0.14 0.13 0.11 0.11 0.09 0.09 0.09 0.09 0.11 0.13 0.13 0.12 0.12 0.12 0.10 0.09 0.08 0.08 0.07 0.07 0.07 0.06 0.05 0.05 0.04 0.03 0.03 0.03 0.03
0.03 0.03 0.05 0.06 0.05 0.05 0.06 0.07 0.08 0.10 0.11 0.12 0.12 0.11 0.10 0.11 0.10 0.08 0.08 0.08 0.09 0.11 0.14 0.14 0.14 0.13 0.11 0.10 0.10 0.10 0.09 0.08 0.08 0.08 0.07 0.06 0.06 0.05 0.04 0.02 0.02 0.01 0.01
0.04 0.03 0.03 0.04 0.05 0.06 0.06 0.08 0.09 0.11 0.12 0.13 0.11 0.07 0.06 0.07 0.07 0.06 0.07 0.07 0.06 0.06 0.06 0.05 0.07 0.08 0.10 0.11 0.12 0.12 0.09 0.08 0.09 0.08 0.07 0.06 0.06 0.05 0.04 0.02 0.01 0.01 0.01
0.04 0.03 0.03 0.03 0.04 0.04 0.05 0.06 0.07 0.08 0.08 0.06 0.04 0.03 0.03 0.04 0.05 0.06 0.05 0.04 0.03 0.03 0.03 0.04 0.04 0.04 0.03 0.04 0.04 0.05 0.05 0.05 0.06 0.07 0.07 0.06 0.06 0.05 0.04 0.03 0.02 0.01 0.01
0.04 0.03 0.03 0.02 0.03 0.03 0.02 0.03 0.04 0.04 0.03 0.02 0.02 0.02 0.02 0.02 0.01 0.02 0.02 0.02 0.02 0.02 0.02 0.02 0.02 0.02 0.02 0.02 0.02 0.01 0.01 0.01 0.02 0.02 0.03 0.03 0.03 0.03 0.03 0.02 0.02 0.01 0.01
0.04 0.05 0.04 0.03 0.03 0.03 0.04 0.03 0.02 0.02 0.02 0.01 0.01 0.01 0.01 0.01 0.00 0.00 0.01 0.01 0.01 0.01 0.01 0.02 0.02 0.02 0.01 0.01 0.01 0.00 0.00 0.00 0.00 0.00 0.00 0.01 0.01 0.01 0.01 0.00 0.00 0.00 0.00
0.04 0.04 0.04 0.04 0.03 0.03 0.03 0.03 0.02 0.01 0.02 0.02 0.01 0.01 0.01 0.00 0.00 0.00 0.00 0.00 0.00 0.00 0.00 0.00 0.00 0.00 0.00 0.00 0.00 0.00 0.00 0.00 0.00 0.00 0.00 0.00 0.00 0.00 0.00 0.00 0.00 0.00 0.00
0.03 0.03 0.03 0.03 0.02 0.01 0.01 0.01 0.01 0.01 0.00 0.00 0.00 0.00 0.00 0.00 0.00 0.00 0.00 0.00 0.00 0.00 0.00 0.00 0.00 0.00 0.00 0.00 0.00 0.00 0.00 0.00 0.00 0.00 0.00 0.00 0.00 0.00 0.00 0.00 0.00 0.00 0.00
0.02 0.01 0.01 0.01 0.00 0.00 0.00 0.00 0.00 0.00 0.00 0.00 0.00 0.00 0.00 0.00 0.00 0.00 0.00 0.00 0.00 0.00 0.00 0.00 0.00 0.00 0.00 0.00 0.00 0.00 0.00 0.00 0.00 0.00 0.00 0.00 0.00 0.00 0.00 0.00 0.00 0.00 0.00
MSLP
1008.71 1008.89 1009.09 1009.31 1009.60 1009.97 1010.44 1011.03 1011.72 1012.46 1013.23 1013.96 1014.61 1015.16 1015.59 1015.93 1016.21 1016.46 1016.71 1016.99 1017.29 1017.61 1017.94 1018.24 1018.50 1018.72 1018.89 1019.05 1019.19 1019.36 1019.56 1019.79 1020.04 1020.29 1020.50 1020.65 1020.72 1020.70 1020.60 1020.45 1020.29 1020.14 1020.04
1008.59 1008.70 1008.81 1008.94 1009.13 1009.41 1009.82 1010.39 1011.11 1011.95 1012.83 1013.71 1014.51 1015.18 1015.72 1016.11 1016.39 1016.62 1016.83 1017.06 1017.33 1017.65 1017.99 1018.33 1018.63 1018.88 1019.08 1019.23 1019.36 1019.49 1019.65 1019.85 1020.08 1020.34 1020.58 1020.77 1020.89 1020.93 1020.87 1020.74 1020.58 1020.41 1020.27
1008.45 1008.51 1008.56 1008.61 1008.71 1008.90 1009.25 1009.79 1010.52 1011.42 1012.41 1013.42 1014.36 1015.17 1015.80 1016.26 1016.58 1016.80 1016.98 1017.18 1017.43 1017.73 1018.08 1018.43 1018.75 1019.02 1019.22 1019.36 1019.46 1019.55 1019.67 1019.83 1020.05 1020.30 1020.57 1020.82 1021.00 1021.10 1021.10 1021.02 1020.87 1020.70 1020.54
1008.29 1008.35 1008.38 1008.39 1008.43 1008.55 1008.83 1009.32 1010.04 1010.96 1012.02 1013.13 1014.18 1015.10 1015.84 1016.38 1016.74 1016.97 1017.15 1017.33 1017.55 1017.84 1018.17 1018.53 1018.86 1019.13 1019.33 1019.45 1019.52 1019.58 1019.66 1019.79 1019.98 1020.24 1020.53 1020.82 1021.06 1021.23 1021.29 1021.26 1021.15 1020.99 1020.82
1008.16 1008.27 1008.33 1008.34 1008.35 1008.42 1008.64 1009.07 1009.75 1010.65 1011.73 1012.88 1014.00 1015.00 1015.82 1016.42 1016.83 1017.09 1017.28 1017.45 1017.66 1017.93 1018.26 1018.61 1018.94 1019.22 1019.41 1019.53 1019.58 1019.61 1019.66 1019.76 1019.94 1020.19 1020.49 1020.81 1021.09 1021.31 1021.43 1021.45 1021.38 1021.24 1021.08
1008.08 1008.28 1008.43 1008.49 1008.51 1008.56 1008.73 1009.09 1009.69 1010.53 1011.56 1012.70 1013.83 1014.87 1015.73 1016.38 1016.83 1017.12 1017.32 1017.50 1017.71 1017.98 1018.30 1018.65 1018.99 1019.27 1019.47 1019.59 1019.64 1019.66 1019.69 1019.77 1019.93 1020.17 1020.47 1020.80 1021.11 1021.36 1021.52 1021.57 1021.53 1021.42 1021.26
1008.06 1008.40 1008.66 1008.82 1008.89 1008.94 1009.06 1009.34 1009.85 1010.59 1011.53 1012.60 1013.69 1014.70 1015.57 1016.24 1016.72 1017.04 1017.26 1017.46 1017.68 1017.95 1018.27 1018.63 1018.97 1019.27 1019.49 1019.62 1019.68 1019.71 1019.73 1019.81 1019.95 1020.17 1020.45 1020.77 1021.08 1021.34 1021.52 1021.60 1021.58 1021.49 1021.35
1008.10 1008.60 1009.00 1009.27 1009.41 1009.49 1009.58 1009.79 1010.19 1010.81 1011.62 1012.57 1013.57 1014.52 1015.36 1016.02 1016.50 1016.84 1017.09 1017.31 1017.54 1017.82 1018.15 1018.52 1018.88 1019.19 1019.43 1019.59 1019.68 1019.72 1019.76 1019.82 1019.95 1020.15 1020.41 1020.71 1021.00 1021.24 1021.42 1021.51 1021.51 1021.44 1021.31
1008.18 1008.83 1009.38 1009.77 1009.99 1010.10 1010.18 1010.33 1010.63 1011.12 1011.79 1012.60 1013.48 1014.34 1015.11 1015.74 1016.22 1016.56 1016.83 1017.06 1017.30 1017.59 1017.93 1018.30 1018.67 1019.00 1019.27 1019.46 1019.57 1019.64 1019.69 1019.77 1019.89 1020.07 1020.29 1020.55 1020.81 1021.03 1021.20 1021.29 1021.30 1021.25 1021.15
1008.28 1009.05 1009.72 1010.21 1010.51 1010.66 1010.75 1010.85 1011.07 1011.45 1011.99 1012.67 1013.42 1014.18 1014.87 1015.44 1015.89 1016.23 1016.50 1016.73 1016.98 1017.28 1017.61 1017.98 1018.35 1018.69 1018.97 1019.18 1019.33 1019.42 1019.49 1019.58 1019.70 1019.86 1020.06 1020.28 1020.51 1020.70 1020.85 1020.93 1020.96 1020.93 1020.87
1008.38 1009.22 1009.97 1010.53 1010.89 1011.08 1011.18 1011.27 1011.44 1011.73 1012.17 1012.74 1013.38 1014.04 1014.65 1015.16 1015.58 1015.90 1016.15 1016.38 1016.62 1016.90 1017.21 1017.56 1017.92 1018.25 1018.53 1018.75 1018.91 1019.03 1019.12 1019.22 1019.34 1019.50 1019.68 1019.88 1020.08 1020.25 1020.39 1020.47 1020.51 1020.51 1020.48
1008.46 1009.33 1010.09 1010.68 1011.07 1011.30 1011.42 1011.52 1011.67 1011.92 1012.30 1012.79 1013.35 1013.92 1014.46 1014.92 1015.29 1015.58 1015.82 1016.03 1016.25 1016.49 1016.78 1017.09 1017.41 1017.71 1017.97 1018.19 1018.35 1018.48 1018.60 1018.71 1018.84 1019.00 1019.18 1019.37 1019.56 1019.72 1019.85 1019.94 1019.99 1020.01 1020.01
1008.53 1009.36 1010.09 1010.66 1011.05 1011.30 1011.45 1011.57 1011.74 1011.99 1012.35 1012.80 1013.31 1013.82 1014.30 1014.72 1015.05 1015.31 1015.52 1015.70 1015.89 1016.10 1016.34 1016.60 1016.87 1017.13 1017.35 1017.54 1017.70 1017.84 1017.96 1018.09 1018.25 1018.42 1018.61 1018.81 1019.00 1019.16 1019.29 1019.38 1019.45 1019.48 1019.50
1008.59 1009.32 1009.97 1010.49 1010.86 1011.11 1011.29 1011.46 1011.67 1011.95 1012.32 1012.77 1013.25 1013.73 1014.18 1014.56 1014.86 1015.09 1015.27 1015.43 1015.58 1015.76 1015.95 1016.15 1016.36 1016.57 1016.75 1016.90 1017.04 1017.17 1017.31 1017.46 1017.63 1017.84 1018.05 1018.27 1018.47 1018.65 1018.78 1018.87 1018.93 1018.97 1019.00
1008.63 1009.25 1009.79 1010.22 1010.55 1010.80 1011.01 1011.22 1011.49 1011.82 1012.23 1012.69 1013.17 1013.64 1014.06 1014.42 1014.70 1014.91 1015.08 1015.22 1015.35 1015.49 1015.64 1015.80 1015.96 1016.10 1016.24 1016.36 1016.47 1016.59 1016.73 1016.90 1017.11 1017.34 1017.58 1017.83 1018.05 1018.23 1018.37 1018.46 1018.50 1018.52 1018.53
1008.66 1009.16 1009.58 1009.93 1010.21 1010.44 1010.68 1010.95 1011.27 1011.67 1012.12 1012.61 1013.10 1013.57 1013.98 1014.32 1014.59 1014.79 1014.95 1015.09 1015.21 1015.33 1015.46 1015.59 1015.71 1015.82 1015.91 1016.00 1016.09 1016.20 1016.34 1016.53 1016.75 1017.01 1017.28 1017.55 1017.79 1017.98 1018.11 1018.18 1018.19 1018.17 1018.13
1008.71 1009.09 1009.41 1009.67 1009.91 1010.15 1010.41 1010.72 1011.10 1011.55 1012.05 1012.56 1013.07 1013.53 1013.94 1014.27 1014.54 1014.75 1014.92 1015.06 1015.20 1015.33 1015.46 1015.58 1015.68 1015.77 1015.83 1015.89 1015.97 1016.06 1016.20 1016.39 1016.63 1016.90 1017.19 1017.47 1017.72 1017.90 1018.01 1018.05 1018.01 1017.94 1017.84
1008.79 1009.08 1009.33 1009.54 1009.75 1009.99 1010.28 1010.64 1011.07 1011.57 1012.09 1012.62 1013.13 1013.59 1013.99 1014.32 1014.59 1014.82 1015.01 1015.19 1015.36 1015.52 1015.67 1015.80 1015.90 1015.98 1016.04 1016.08 1016.13 1016.21 1016.34 1016.53 1016.76 1017.03 1017.32 1017.60 1017.83 1017.99 1018.06 1018.05 1017.96 1017.82 1017.65
1008.93 1009.18 1009.39 1009.59 1009.80 1010.06 1010.38 1010.78 1011.25 1011.77 1012.32 1012.85 1013.36 1013.81 1014.19 1014.52 1014.80 1015.04 1015.27 1015.48 1015.70 1015.90 1016.09 1016.25 1016.37 1016.46 1016.51 1016.54 1016.58 1016.64 1016.74 1016.90 1017.11 1017.36 1017.62 1017.86 1018.06 1018.18 1018.21 1018.14 1017.99 1017.78 1017.53
1009.18 1009.42 1009.64 1009.84 1010.08 1010.37 1010.74 1011.17 1011.67 1012.21 1012.76 1013.29 1013.77 1014.20 1014.57 1014.89 1015.18 1015.44 1015.70 1015.96 1016.22 1016.47 1016.70 1016.89 1017.04 1017.14 1017.19 1017.21 1017.23 1017.26 1017.32 1017.44 1017.60 1017.79 1018.00 1018.19 1018.33 1018.39 1018.36 1018.24 1018.03 1017.76 1017.46
1009.56 1009.83 1010.07 1010.32 1010.60 1010.94 1011.34 1011.81 1012.33 1012.87 1013.41 1013.92 1014.38 1014.78 1015.13 1015.45 1015.73 1016.01 1016.29 1016.59 1016.89 1017.18 1017.45 1017.67 1017.84 1017.95 1018.00 1018.00 1017.99 1017.98 1017.99 1018.04 1018.13 1018.25 1018.37 1018.48 1018.55 1018.54 1018.45 1018.27 1018.01 1017.70 1017.36
1010.08 1010.40 1010.70 1011.00 1011.33 1011.72 1012.16 1012.65 1013.17 1013.70 1014.22 1014.70 1015.13 1015.50 1015.83 1016.13 1016.41 1016.70 1017.00 1017.32 1017.65 1017.97 1018.26 1018.50 1018.68 1018.79 1018.83 1018.81 1018.76 1018.69 1018.64 1018.61 1018.61 1018.63 1018.65 1018.67 1018.64 1018.56 1018.41 1018.18 1017.89 1017.56 1017.21
1010.73 1011.11 1011.46 1011.82 1012.20 1012.63 1013.09 1013.59 1014.10 1014.62 1015.10 1015.54 1015.94 1016.28 1016.58 1016.86 1017.14 1017.43 1017.74 1018.06 1018.40 1018.73 1019.03 1019.28 1019.46 1019.56 1019.58 1019.53 1019.44 1019.31 1019.18 1019.06 1018.96 1018.87 1018.79 1018.70 1018.58 1018.42 1018.20 1017.94 1017.63 1017.30 1016.97
1011.49 1011.92 1012.32 1012.72 1013.13 1013.57 1014.04 1014.53 1015.02 1015.50 1015.94 1016.34 1016.69 1017.01 1017.29 1017.55 1017.82 1018.10 1018.41 1018.74 1019.08 1019.41 1019.70 1019.94 1020.11 1020.19 1020.19 1020.11 1019.97 1019.79 1019.58 1019.37 1019.17 1018.97 1018.78 1018.58 1018.37 1018.13 1017.87 1017.58 1017.27 1016.96 1016.65
1012.31 1012.76 1013.19 1013.61 1014.03 1014.47 1014.91 1015.37 1015.81 1016.24 1016.63 1016.99 1017.30 1017.58 1017.85 1018.10 1018.36 1018.65 1018.95 1019.27 1019.60 1019.92 1020.21 1020.43 1020.58 1020.65 1020.62 1020.52 1020.34 1020.10 1019.83 1019.54 1019.25 1018.95 1018.65 1018.36 1018.07 1017.77 1017.46 1017.16 1016.86 1016.58 1016.32
1013.13 1013.59 1014.01 1014.43 1014.83 1015.23 1015.63 1016.03 1016.41 1016.77 1017.10 1017.41 1017.69 1017.95 1018.20 1018.45 1018.72 1019.00 1019.31 1019.63 1019.96 1020.27 1020.54 1020.76 1020.89 1020.95 1020.91 1020.78 1020.57 1020.30 1019.98 1019.63 1019.26 1018.88 1018.50 1018.13 1017.77 1017.42 1017.09 1016.78 1016.49 1016.24 1016.03
Thickness
5738 5735 5732 5729 5726 5724 5721 5719 5719 5718 5718 5717 5715 5714 5714 5715 5717 5718 5718 5718 5718 5719 5719 5718 5717 5716 5716 5715 5715 5714 5712 5710 5710 5709 5706 5708 5709 5710 5710 5710 5710 5710 5710
5734 5732 5730 5727 5724 5722 5720 5718 5717 5717 5717 5717 5717 5716 5715 5714 5714 5715 5715 5716 5716 5717 5717 5717 5716 5715 5714 5714 5714 5713 5710 5708 5708 5706 5702 5700 5703 5706 5709 5709 5709 5709 5709
5735 5731 5728 5725 5723 5720 5719 5718 5717 5716 5716 5715 5714 5712 5711 5710 5710 5710 5712 5713 5714 5715 5716 5715 5715 5714 5714 5713 5713 5713 5711 5707 5706 5706 5704 5698 5696 5700 5704 5706 5706 5707 5707
5737 5732 5729 5725 5723 5721 5719 5718 5717 5714 5713 5713 5712 5711 5710 5708 5709 5709 5709 5710 5712 5713 5714 5714 5713 5713 5712 5712 5712 5712 5711 5709 5705 5704 5704 5703 5702 5699 5698 5702 5704 5705 5705
5739 5734 5731 5728 5725 5723 5720 5718 5716 5714 5713 5713 5713 5711 5709 5709 5709 5708 5708 5708 5709 5711 5711 5711 5711 5711 5711 5711 5711 5710 5710 5709 5706 5705 5703 5701 5700 5700 5699 5697 5700 5702 5703
5741 5736 5733 5729 5725 5723 5721 5719 5716 5714 5713 5713 5712 5711 5709 5708 5706 5706 5706 5706 5707 5708 5709 5709 5709 5709 5709 5709 5709 5709 5708 5707 5706 5705 5704 5702 5701 5699 5698 5696 5696 5697 5700
5741 5736 5732 5729 5726 5724 5721 5719 5717 5714 5714 5713 5712 5711 5710 5709 5708 5707 5707 5706 5705 5706 5707 5708 5708 5708 5708 5708 5707 5706 5706 5705 5704 5703 5703 5702 5702 5701 5698 5696 5694 5693 5695
5742 5738 5735 5732 5729 5726 5723 5721 5718 5716 5715 5714 5713 5712 5711 5710 5710 5709 5709 5708 5707 5708 5708 5707 5707 5706 5706 5706 5705 5704 5703 5702 5702 5701 5700 5700 5699 5698 5698 5696 5693 5690 5690
5745 5741 5737 5734 5731 5728 5725 5723 5721 5718 5716 5715 5713 5711 5711 5710 5709 5709 5709 5708 5708 5708 5707 5706 5705 5704 5704 5703 5702 5701 5700 5699 5699 5698 5697 5697 5696 5696 5695 5694 5693 5689 5686
5746 5742 5739 5736 5733 5731 5727 5724 5722 5719 5717 5715 5714 5713 5711 5711 5710 5709 5708 5708 5708 5707 5706 5705 5704 5703 5702 5701 5700 5699 5698 5696 5695 5694 5693 5692 5692 5691 5691 5690 5688 5687 5685
5747 5744 5741 5739 5735 5732 5728 5725 5722 5720 5717 5716 5714 5713 5712 5711 5710 5709 5708 5708 5707 5706 5705 5704 5703 5702 5700 5699 5697 5696 5695 5693 5692 5691 5690 5689 5688 5687 5686 5685 5684 5682 5681
5748 5745 5742 5739 5736 5732 5729 5726 5724 5721 5719 5716 5714 5712 5711 5710 5709 5708 5707 5707 5706 5705 5704 5703 5702 5701 5699 5698 5696 5694 5693 5691 5689 5688 5687 5686 5685 5683 5682 5680 5679 5678 5677
5747 5744 5741 5738 5736 5733 5731 5728 5725 5722 5719 5716 5713 5711 5709 5708 5707 5706 5706 5705 5704 5703 5702 5701 5700 5698 5697 5695 5694 5692 5691 5689 5687 5685 5684 5682 5680 5679 5677 5676 5675 5674 5673
5744 5741 5738 5737 5735 5733 5731 5728 5725 5723 5719 5716 5713 5710 5709 5707 5706 5704 5704 5703 5702 5701 5700 5698 5697 5695 5694 5692 5690 5688 5687 5685 5683 5681 5680 5679 5676 5674 5673 5672 5671 5669 5667
5741 5739 5736 5734 5733 5731 5729 5727 5725 5722 5719 5716 5712 5709 5707 5705 5704 5702 5701 5700 5699 5698 5696 5695 5693 5691 5689 5688 5686 5684 5682 5680 5678 5676 5674 5673 5671 5670 5668 5666 5665 5662 5660
5739 5737 5734 5732 5731 5729 5727 5725 5722 5720 5717 5713 5710 5707 5704 5702 5700 5698 5696 5694 5693 5692 5690 5689 5687 5685 5683 5682 5681 5679 5677 5674 5671 5669 5667 5666 5664 5662 5661 5659 5658 5656 5654
5736 5733 5731 5729 5728 5727 5725 5722 5719 5716 5712 5709 5706 5703 5700 5697 5694 5692 5690 5688 5686 5684 5682 5680 5678 5675 5674 5673 5672 5669 5667 5664 5661 5659 5657 5656 5654 5652 5651 5649 5648 5646 5644
5731 5728 5725 5723 5722 5721 5719 5717 5714 5710 5707 5703 5699 5697 5695 5691 5688 5685 5683 5680 5678 5675 5673 5670 5668 5666 5663 5661 5661 5658 5655 5651 5649 5646 5645 5642 5640 5638 5637 5637 5636 5634 5632
5723 5720 5718 5716 5715 5713 5712 5709 5705 5702 5698 5694 5691 5688 5686 5683 5680 5676 5674 5671 5668 5665 5662 5659 5656 5654 5651 5649 5648 5646 5642 5637 5634 5632 5630 5629 5626 5624 5623 5623 5621 5621 5619
5714 5712 5709 5706 5705 5703 5703 5700 5695 5691 5687 5684 5682 5679 5676 5673 5669 5665 5662 5660 5657 5653 5649 5645 5642 5639 5636 5634 5633 5631 5628 5623 5621 5618 5616 5614 5612 5610 5609 5608 5607 5606 5606
5703 5701 5699 5695 5693 5693 5693 5688 5684 5679 5676 5675 5672 5668 5665 5661 5658 5654 5650 5647 5643 5639 5634 5630 5626 5623 5621 5619 5617 5615 5612 5609 5606 5604 5602 5600 5597 5596 5595 5594 5592 5591 5591
5690 5690 5686 5683 5680 5681 5681 5676 5670 5666 5665 5663 5659 5655 5652 5650 5646 5641 5637 5633 5629 5624 5619 5615 5611 5608 5605 5603 5601 5599 5597 5594 5591 5588 5586 5584 5583 5582 5581 5579 5578 5577 5577
5679 5677 5674 5671 5667 5666 5666 5662 5656 5655 5653 5649 5644 5641 5638 5634 5631 5627 5623 5619 5614 5609 5604 5600 5596 5592 5590 5587 5585 5583 5581 5579 5576 5573 5572 5570 5568 5567 5566 5564 5563 5562 5561
5667 5664 5662 5660 5654 5651 5650 5647 5644 5643 5640 5635 5630 5626 5623 5619 5616 5612 5608 5605 5600 5595 5591 5587 5582 5578 5575 5573 5570 5568 5566 5563 5560 5558 5556 5554 5552 5550 5549 5547 5546 5544 5543
5655 5653 5650 5646 5641 5638 5636 5634 5632 5630 5626 5622 5617 5613 5609 5605 5601 5596 5592 5589 5584 5581 5576 5571 5567 5564 5560 5556 5553 5550 5549 5546 5543 5541 5539 5537 5535 5534 5532 5530 5528 5526 5525
5642 5639 5636 5633 5629 5626 5624 5621 5619 5617 5614 5609 5604 5600 5596 5592 5588 5583 5577 5572 5568 5564 5560 5556 5551 5547 5543 5540 5537 5534 5531 5528 5525 5523 5521 5518 5516 5514 5513 5512 5510 5509 5507